When you browse on this site, cookies collect data to enhance your experience and personalize the content and advertising you see.
Visit our Privacy Policy to learn more. By continuing to use the site, you agree to this use of cookies and data.
  • In Hungary
  • List of Countries
  • For 7 days
  • Water Temperature
  • Satellite Maps
  • Weather Map
  • News
  • Weather Widgets
  • user-avatar
    Login

    Hourly Weather Osolin

    Today, 22 May, Wednesday

    Time Temperature Precipitation Wind Pressure Humidity
    00:00 +14°C° 0.6 mm 3 mps 738 mmHg 95%
    01:00 +13°C° 0 mm 3 mps 738 mmHg 96%
    02:00 +13°C° 0.8 mm 4 mps 738 mmHg 97%
    03:00 +13°C° 0.8 mm 4 mps 739 mmHg 97%
    04:00 +14°C° 0.8 mm 4 mps 739 mmHg 97%
    05:00 +14°C° 0.5 mm 5 mps 739 mmHg 97%
    06:00 +14°C° 0.5 mm 5 mps 739 mmHg 96%
    07:00 +14°C° 0.5 mm 6 mps 739 mmHg 95%
    08:00 +14°C° 1 mm 6 mps 740 mmHg 95%
    09:00 +14°C° 1 mm 6 mps 740 mmHg 95%
    10:00 +14°C° 1 mm 7 mps 740 mmHg 95%
    11:00 +14°C° 0.9 mm 7 mps 740 mmHg 95%
    12:00 +14°C° 0.9 mm 7 mps 741 mmHg 94%
    13:00 +14°C° 0.9 mm 7 mps 741 mmHg 94%
    14:00 +14°C° 0.2 mm 7 mps 741 mmHg 94%
    15:00 +14°C° 0.2 mm 7 mps 741 mmHg 93%
    16:00 +14°C° 0.2 mm 7 mps 742 mmHg 93%
    17:00 +12°C° 0.1 mm 7 mps 742 mmHg 93%
    18:00 +12°C° 0.1 mm 7 mps 742 mmHg 93%
    19:00 +12°C° 0.1 mm 7 mps 743 mmHg 93%
    20:00 +12°C° 0.1 mm 7 mps 743 mmHg 93%
    21:00 +11°C° 0.1 mm 7 mps 743 mmHg 93%
    22:00 +11°C° 0.1 mm 7 mps 744 mmHg 93%
    23:00 +11°C° 0.1 mm 7 mps 744 mmHg 94%

    Tomorrow, 23 May, Thursday

    Time Temperature Precipitation Wind Pressure Humidity
    00:00 +11°C° 0.1 mm 7 mps 744 mmHg 94%
    01:00 +11°C° 0.1 mm 6 mps 745 mmHg 94%
    02:00 +10°C° 0.2 mm 6 mps 745 mmHg 94%
    03:00 +10°C° 0.2 mm 6 mps 745 mmHg 94%
    04:00 +10°C° 0.2 mm 6 mps 745 mmHg 94%
    05:00 +9°C° 0.1 mm 6 mps 746 mmHg 93%
    06:00 +9°C° 0.1 mm 6 mps 746 mmHg 93%
    07:00 +9°C° 0.1 mm 6 mps 746 mmHg 93%
    08:00 +9°C° 0.1 mm 6 mps 747 mmHg 90%
    09:00 +9°C° 0.1 mm 6 mps 747 mmHg 88%
    10:00 +9°C° 0.1 mm 6 mps 747 mmHg 86%
    11:00 +11°C° 0 mm 6 mps 748 mmHg 79%
    12:00 +13°C° 0 mm 6 mps 748 mmHg 72%
    13:00 +14°C° 0 mm 6 mps 748 mmHg 65%
    14:00 +15°C° 0 mm 6 mps 748 mmHg 63%
    15:00 +16°C° 0 mm 5 mps 747 mmHg 61%
    16:00 +16°C° 0 mm 5 mps 747 mmHg 59%
    17:00 +17°C° 0 mm 4 mps 747 mmHg 64%
    18:00 +16°C° 0 mm 3 mps 747 mmHg 69%
    19:00 +15°C° 0 mm 2 mps 747 mmHg 74%
    20:00 +14°C° 0 mm 2 mps 748 mmHg 76%
    21:00 +12°C° 0 mm 2 mps 748 mmHg 77%
    22:00 +10°C° 0 mm 2 mps 748 mmHg 79%
    23:00 +9°C° 0 mm 2 mps 748 mmHg 79%

    Day after tomorrow, 24 May, Friday

    Time Temperature Precipitation Wind Pressure Humidity
    00:00 +8°C° 0 mm 2 mps 748 mmHg 79%
    01:00 +7°C° 0 mm 2 mps 748 mmHg 79%
    02:00 +7°C° 0 mm 2 mps 748 mmHg 80%
    03:00 +7°C° 0 mm 2 mps 748 mmHg 82%
    04:00 +6°C° 0 mm 2 mps 748 mmHg 83%
    05:00 +8°C° 0 mm 2 mps 748 mmHg 79%
    06:00 +10°C° 0 mm 2 mps 748 mmHg 74%
    07:00 +13°C° 0 mm 2 mps 748 mmHg 70%
    08:00 +14°C° 0 mm 2 mps 748 mmHg 67%
    09:00 +16°C° 0 mm 2 mps 747 mmHg 63%
    10:00 +18°C° 0 mm 2 mps 747 mmHg 60%
    11:00 +18°C° 0 mm 2 mps 747 mmHg 58%
    12:00 +19°C° 0 mm 2 mps 747 mmHg 56%
    13:00 +20°C° 0 mm 2 mps 746 mmHg 54%
    14:00 +20°C° 0 mm 2 mps 746 mmHg 54%
    15:00 +20°C° 0 mm 2 mps 746 mmHg 54%
    16:00 +20°C° 0 mm 2 mps 745 mmHg 54%
    17:00 +20°C° 0 mm 1 mps 745 mmHg 58%
    18:00 +19°C° 0 mm 1 mps 745 mmHg 63%
    19:00 +16°C° 0 mm 0 mps 745 mmHg 68%
    20:00 +16°C° 0 mm 1 mps 745 mmHg 70%
    21:00 +15°C° 0 mm 2 mps 745 mmHg 73%
    22:00 +13°C° 0 mm 2 mps 745 mmHg 75%
    23:00 +13°C° 0 mm 2 mps 745 mmHg 75%

    25 May, Saturday

    Time Temperature Precipitation Wind Pressure Humidity
    00:00 +13°C° 0 mm 2 mps 745 mmHg 76%
    01:00 +13°C° 0 mm 2 mps 745 mmHg 76%
    02:00 +12°C° 0 mm 2 mps 745 mmHg 80%
    03:00 +11°C° 0 mm 3 mps 745 mmHg 85%
    04:00 +11°C° 0 mm 3 mps 745 mmHg 90%
    05:00 +12°C° 0 mm 3 mps 745 mmHg 87%
    06:00 +13°C° 0 mm 4 mps 745 mmHg 84%
    07:00 +14°C° 0 mm 4 mps 745 mmHg 81%
    08:00 +15°C° 0.1 mm 5 mps 745 mmHg 77%
    09:00 +16°C° 0.1 mm 5 mps 745 mmHg 73%
    10:00 +19°C° 0.1 mm 5 mps 746 mmHg 69%
    11:00 +19°C° 0 mm 5 mps 746 mmHg 64%
    12:00 +20°C° 0 mm 6 mps 746 mmHg 58%
    13:00 +20°C° 0 mm 6 mps 745 mmHg 53%
    14:00 +20°C° 0 mm 6 mps 745 mmHg 53%
    15:00 +20°C° 0 mm 5 mps 745 mmHg 53%
    16:00 +20°C° 0 mm 5 mps 745 mmHg 53%
    17:00 +19°C° 0 mm 4 mps 745 mmHg 60%
    18:00 +17°C° 0 mm 4 mps 745 mmHg 67%
    19:00 +16°C° 0 mm 3 mps 745 mmHg 74%
    20:00 +15°C° 0 mm 2 mps 745 mmHg 76%
    21:00 +14°C° 0 mm 2 mps 746 mmHg 78%
    22:00 +13°C° 0 mm 1 mps 746 mmHg 80%
    23:00 +12°C° 0 mm 2 mps 746 mmHg 83%

    26 May, Sunday

    Time Temperature Precipitation Wind Pressure Humidity
    00:00 +10°C° 0 mm 2 mps 746 mmHg 87%
    01:00 +9°C° 0 mm 2 mps 746 mmHg 91%
    02:00 +9°C° 0 mm 3 mps 746 mmHg 92%
    03:00 +8°C° 0 mm 3 mps 745 mmHg 93%
    04:00 +7°C° 0 mm 4 mps 745 mmHg 94%
    05:00 +8°C° 0 mm 5 mps 745 mmHg 88%
    06:00 +9°C° 0 mm 5 mps 745 mmHg 82%
    07:00 +10°C° 0 mm 6 mps 745 mmHg 76%
    08:00 +11°C° 0 mm 6 mps 745 mmHg 71%
    09:00 +13°C° 0 mm 6 mps 745 mmHg 66%
    10:00 +14°C° 0 mm 6 mps 745 mmHg 62%
    11:00 +15°C° 0 mm 7 mps 745 mmHg 58%
    12:00 +16°C° 0 mm 7 mps 744 mmHg 55%
    13:00 +17°C° 0 mm 7 mps 744 mmHg 52%
    14:00 +17°C° 0 mm 7 mps 744 mmHg 54%
    15:00 +17°C° 0 mm 6 mps 744 mmHg 57%
    16:00 +17°C° 0 mm 6 mps 744 mmHg 60%
    17:00 +16°C° 0 mm 5 mps 744 mmHg 65%
    18:00 +15°C° 0 mm 4 mps 744 mmHg 70%
    19:00 +14°C° 0 mm 4 mps 744 mmHg 75%
    20:00 +13°C° 0 mm 3 mps 744 mmHg 79%
    21:00 +12°C° 0 mm 3 mps 744 mmHg 82%
    22:00 +11°C° 0 mm 3 mps 744 mmHg 86%
    23:00 +11°C° 0 mm 3 mps 744 mmHg 86%

    27 May, Monday

    Time Temperature Precipitation Wind Pressure Humidity
    00:00 +10°C° 0 mm 2 mps 744 mmHg 87%
    01:00 +10°C° 0 mm 2 mps 744 mmHg 87%
    02:00 +12°C° 0 mm 2 mps 744 mmHg 85%
    03:00 +12°C° 0 mm 2 mps 743 mmHg 82%
    04:00 +12°C° 0 mm 2 mps 743 mmHg 80%
    05:00 +14°C° 0 mm 2 mps 743 mmHg 78%
    06:00 +14°C° 0 mm 3 mps 743 mmHg 76%
    07:00 +16°C° 0 mm 3 mps 742 mmHg 74%
    08:00 +18°C° 0.2 mm 4 mps 742 mmHg 71%
    09:00 +20°C° 0.2 mm 4 mps 742 mmHg 68%
    10:00 +21°C° 0.2 mm 5 mps 741 mmHg 64%
    11:00 +21°C° 1.2 mm 5 mps 741 mmHg 66%
    12:00 +22°C° 1.2 mm 5 mps 740 mmHg 68%
    13:00 +22°C° 1.2 mm 5 mps 740 mmHg 70%
    14:00 +21°C° 1.4 mm 5 mps 740 mmHg 74%
    15:00 +20°C° 1.4 mm 6 mps 740 mmHg 77%
    16:00 +20°C° 1.4 mm 6 mps 740 mmHg 81%
    17:00 +19°C° 0.2 mm 5 mps 740 mmHg 83%
    18:00 +17°C° 0.2 mm 5 mps 740 mmHg 85%
    19:00 +15°C° 0.2 mm 4 mps 740 mmHg 87%
    20:00 +14°C° 0 mm 4 mps 741 mmHg 88%
    21:00 +13°C° 0 mm 4 mps 741 mmHg 89%
    22:00 +11°C° 0 mm 3 mps 742 mmHg 90%
    23:00 +11°C° 0 mm 3 mps 742 mmHg 92%
    Show more